Waarnemingen

Advertentie
Mijn weer
Istres, Frankrijk (7647): temperatuur & dauwpunt: 10.06.2019 17:00:00 - 16.06.2019 17:00:00 (CEST)Istres, Frankrijk (7647): temperatuur 5cm: 10.06.2019 17:00:00 - 16.06.2019 17:00:00 (CEST)Istres, Frankrijk (7647): windsnelheid & windstoten: 10.06.2019 17:00:00 - 16.06.2019 17:00:00 (CEST)Istres, Frankrijk (7647): windrichting: 10.06.2019 17:00:00 - 16.06.2019 17:00:00 (CEST)Istres, Frankrijk (7647): luchtdruk: 10.06.2019 17:00:00 - 16.06.2019 17:00:00 (CEST)Istres, Frankrijk (7647): zicht: 10.06.2019 17:00:00 - 16.06.2019 17:00:00 (CEST)Istres, Frankrijk (7647): neerslag: 10.06.2019 17:00:00 - 16.06.2019 17:00:00 (CEST)
Datum & Tijd tt [°C] td [°C] tt 5cm [°C] ff [km/u] ff [kn] fx [km/u] fx [kn] dd ppp [hPa] vv [km] rr [mm]
16.06.2019 17:00:00 - - - - - - - - - - -
16.06.2019 16:00:00 28,0 12,4 33,2 33 18 51 28 NW 1015,2 13 0,0
16.06.2019 15:00:00 27,4 11,4 32,6 36 20 51 27 NNW 1015,7 16 0,0
16.06.2019 14:00:00 26,1 11,1 31,2 30 16 48 26 NNW 1016,2 16 0,0
16.06.2019 13:00:00 25,2 11,4 30,1 32 17 49 26 NNW 1016,6 16 0,0
16.06.2019 12:00:00 24,5 11,4 28,6 35 19 51 28 NW 1016,9 18 0,0
16.06.2019 11:00:00 23,4 11,1 26,6 37 20 50 27 NW 1017,3 18 0,0
16.06.2019 10:00:00 21,9 11,3 24,9 35 19 46 25 NNW 1017,2 11 0,0
16.06.2019 09:00:00 20,4 11,3 22,2 33 18 54 29 NNW 1017,2 11 0,0
16.06.2019 08:00:00 19,0 11,3 19,3 31 17 46 25 NNW 1017,3 12 0,0
16.06.2019 07:00:00 17,7 11,3 16,6 29 16 44 24 NW 1017,1 11 0,0
16.06.2019 06:00:00 17,2 11,0 16,6 32 17 45 25 NW 1017,3 60 0,0
16.06.2019 05:00:00 17,3 11,8 16,8 29 15 50 27 NW 1017,4 60 0,0
16.06.2019 04:00:00 17,8 12,0 17,3 33 18 50 27 NW 1017,4 60 0,0
16.06.2019 03:00:00 18,0 12,2 17,6 35 19 54 29 NW 1017,5 60 0,0
16.06.2019 02:00:00 18,2 12,0 17,8 32 17 45 24 NW 1017,8 60 0,0
16.06.2019 01:00:00 18,6 11,9 17,7 21 11 29 16 NW 1018,0 60 0,0
16.06.2019 00:00:00 19,0 12,0 18,5 22 12 34 18 NW 1017,8 60 0,0
15.06.2019 23:00:00 20,1 12,3 19,0 18 10 26 14 NW 1017,1 60 0,0
15.06.2019 22:00:00 21,9 10,7 20,9 20 11 27 14 NNW 1016,4 60 0,0
15.06.2019 21:00:00 23,0 12,3 23,1 15 8 29 16 NW 1016,1 59 0,0
15.06.2019 20:00:00 23,9 11,9 24,2 23 12 41 22 NNW 1015,9 40 0,0
15.06.2019 19:00:00 26,1 17,5 30,1 16 8 27 14 W 1015,6 22 0,0
15.06.2019 18:00:00 26,2 16,7 29,3 15 8 36 19 W 1015,6 22 0,0
15.06.2019 17:00:00 25,0 17,5 27,9 14 7 26 14 W 1016,1 20 0,0
15.06.2019 16:00:00 25,0 17,5 29,0 18 10 37 20 ZZW 1016,2 17 0,0
15.06.2019 15:00:00 24,7 16,9 30,6 16 8 32 17 Z 1016,3 17 0,0
15.06.2019 14:00:00 23,4 16,0 29,3 24 13 36 19 Z 1016,6 17 0,0
15.06.2019 13:00:00 23,9 16,4 28,5 22 12 32 17 Z 1016,3 18 0,0
15.06.2019 12:00:00 22,4 17,1 25,0 24 13 35 19 Z 1016,3 18 0,0
15.06.2019 11:00:00 21,3 17,5 24,0 25 13 32 18 Z 1016,5 14 0,0
15.06.2019 10:00:00 20,7 17,5 21,0 11 6 17 9 ZZO 1016,0 16 0,0
15.06.2019 09:00:00 20,5 17,5 20,0 10 5 14 8 ZZO 1015,3 18 0,0
15.06.2019 08:00:00 19,5 17,5 19,2 10 5 16 9 OZO 1015,0 14 0,0
15.06.2019 07:00:00 19,1 17,2 19,1 10 5 16 8 OZO 1014,9 13 0,0
15.06.2019 06:00:00 19,0 17,5 18,6 10 6 16 9 O 1014,4 10 0,0
15.06.2019 05:00:00 18,9 17,4 18,6 11 6 21 11 OZO 1014,1 8 0,0
15.06.2019 04:00:00 18,8 16,8 18,0 14 8 24 13 OZO 1013,8 19 0,0
15.06.2019 03:00:00 18,4 16,6 18,1 18 10 27 14 OZO 1013,7 16 0,0
15.06.2019 02:00:00 19,1 17,2 18,8 16 9 34 18 ZZO 1013,6 14 0,0
15.06.2019 01:00:00 19,6 18,4 19,7 23 12 40 22 ZO 1013,3 9 0,0
15.06.2019 00:00:00 20,4 18,3 20,0 26 14 43 23 ZO 1012,6 15 0,0
14.06.2019 23:00:00 20,7 18,6 20,8 24 13 42 23 ZO 1011,9 9 0,0
14.06.2019 22:00:00 21,3 18,7 20,2 28 15 41 22 OZO 1011,0 10 0,0
14.06.2019 21:00:00 21,3 18,9 21,2 27 15 61 33 ZO 1010,7 8 0,0
14.06.2019 20:00:00 22,1 19,1 22,5 45 24 82 44 ZZO 1009,4 11 0,0
14.06.2019 19:00:00 23,3 17,7 24,8 50 27 77 42 ZO 1008,1 15 0,0
14.06.2019 18:00:00 29,6 12,5 33,7 21 12 34 18 WNW 1006,9 26 0,0
14.06.2019 17:00:00 29,3 12,7 32,4 26 14 36 20 W 1007,3 20 0,0
14.06.2019 16:00:00 28,8 12,7 27,7 6 3 40 21 W 1006,7 48 0,0
14.06.2019 15:00:00 26,9 12,2 27,9 21 11 27 15 WNW 1007,3 53 0,0
14.06.2019 14:00:00 27,8 13,3 31,1 17 9 34 18 NW 1008,4 25 0,0
14.06.2019 13:00:00 27,1 12,3 32,0 22 12 37 20 NNW 1008,7 41 0,0
14.06.2019 12:00:00 27,7 10,4 30,2 21 12 31 17 NNW 1009,3 52 0,0
14.06.2019 11:00:00 27,9 9,7 30,0 15 8 36 20 N 1009,8 35 0,0
14.06.2019 10:00:00 26,7 7,2 24,6 19 10 29 16 N 1010,0 47 0,0
14.06.2019 09:00:00 22,6 8,7 20,0 24 13 35 19 NNO 1009,4 55 0,0
14.06.2019 08:00:00 19,7 9,6 18,9 25 14 37 20 NNO 1011,3 53 0,0
14.06.2019 07:00:00 19,2 9,4 17,0 17 9 28 15 NNW 1011,8 60 0,0
14.06.2019 06:00:00 17,4 9,6 16,4 12 6 24 13 NW 1011,4 60 0,0
14.06.2019 05:00:00 18,9 8,5 17,6 15 8 46 25 NW 1011,4 60 0,0
14.06.2019 04:00:00 18,6 8,3 15,8 15 8 27 15 ONO 1011,7 60 0,0
14.06.2019 03:00:00 16,9 13,2 16,3 10 5 16 9 NW 1013,7 48 0,0
14.06.2019 02:00:00 17,4 12,9 16,7 8 5 19 11 NW 1013,9 55 0,0
14.06.2019 01:00:00 18,1 13,0 17,5 6 4 17 9 NNO 1013,9 58 0,0
14.06.2019 00:00:00 18,3 13,8 17,9 7 4 16 9 NNW 1014,0 59 0,0
13.06.2019 23:00:00 18,9 14,4 18,4 6 4 15 8 N 1014,2 55 0,0
13.06.2019 22:00:00 19,0 14,3 18,3 5 3 11 6 NNW 1014,6 59 0,0
13.06.2019 21:00:00 19,5 13,9 19,6 6 3 21 11 ZZO 1014,1 60 0,0
13.06.2019 20:00:00 19,9 13,6 21,1 17 9 28 15 ZZO 1014,4 55 0,0
13.06.2019 19:00:00 20,4 12,1 22,1 21 11 29 16 ZZO 1014,4 56 0,0
13.06.2019 18:00:00 22,0 12,0 25,0 20 11 30 16 Z 1014,6 43 0,0
13.06.2019 17:00:00 23,4 10,8 27,1 21 11 29 16 Z 1014,5 29 0,0
13.06.2019 16:00:00 24,5 8,8 29,6 19 11 32 17 Z 1015,0 20 0,0
13.06.2019 15:00:00 25,0 8,0 33,1 19 10 30 16 ZZO 1015,1 52 0,0
13.06.2019 14:00:00 25,1 9,8 32,2 9 5 24 13 ZZO 1015,2 56 0,0
13.06.2019 13:00:00 24,8 9,9 30,9 9 5 22 12 Z 1015,6 60 0,0
13.06.2019 12:00:00 23,4 9,8 29,8 9 5 14 8 O 1015,6 43 0,0
13.06.2019 11:00:00 22,0 11,1 25,9 4 2 10 5 NNW 1015,9 35 0,0
13.06.2019 10:00:00 19,4 13,1 22,8 6 3 15 8 NO 1015,9 22 0,0
13.06.2019 09:00:00 17,2 13,3 17,2 8 4 12 6 N 1015,9 35 0,0
13.06.2019 08:00:00 14,4 12,3 16,9 6 4 10 5 N 1015,8 28 0,0
13.06.2019 07:00:00 13,2 11,6 10,8 0 0 7 4 N 1015,2 6 0,0
13.06.2019 06:00:00 - - - - - - - - - - -
13.06.2019 05:00:00 - - - - - - - - - - -
13.06.2019 04:00:00 13,9 12,9 12,6 6 3 8 4 ONO 1015,0 19 0,0
13.06.2019 03:00:00 13,7 12,4 12,2 4 2 5 3 O 1015,6 26 0,0
13.06.2019 02:00:00 14,2 12,4 12,4 0 0 6 3 N 1015,9 20 0,0
13.06.2019 01:00:00 14,7 12,4 12,5 3 1 5 3 ZW 1015,9 46 0,0
13.06.2019 00:00:00 15,3 11,9 13,5 3 2 8 4 Z 1016,0 49 0,0
12.06.2019 23:00:00 15,1 11,9 13,9 6 4 11 6 ZZW 1015,8 56 0,0
12.06.2019 22:00:00 16,0 11,6 15,1 8 4 14 8 WZW 1015,1 60 0,0
12.06.2019 21:00:00 17,8 9,9 17,9 13 7 26 14 WZW 1014,4 56 0,0
12.06.2019 20:00:00 19,6 9,5 21,7 18 10 27 15 ZW 1013,9 60 0,0
12.06.2019 19:00:00 20,9 7,1 25,0 16 8 25 14 ZW 1013,7 60 0,0
12.06.2019 18:00:00 21,5 8,4 26,6 16 9 30 16 ZW 1013,9 40 0,0
12.06.2019 17:00:00 22,0 10,2 27,4 19 11 29 16 ZW 1014,0 15 0,0
12.06.2019 16:00:00 21,5 8,4 27,4 18 10 32 17 ZZW 1014,1 20 0,0
12.06.2019 15:00:00 21,3 9,2 27,2 19 10 38 20 ZW 1014,0 20 0,0
12.06.2019 14:00:00 21,9 10,4 28,0 20 11 34 18 ZW 1014,0 29 0,0
12.06.2019 13:00:00 20,8 8,4 27,1 12 6 29 15 WNW 1014,0 27 0,0
12.06.2019 12:00:00 20,1 8,1 25,0 19 10 29 16 NW 1013,9 23 0,0
12.06.2019 11:00:00 18,8 9,8 23,2 16 9 32 17 NW 1013,8 13 0,0
12.06.2019 10:00:00 17,7 12,2 20,5 16 9 27 14 WNW 1013,8 13 0,0
12.06.2019 09:00:00 15,7 13,4 16,0 14 8 19 11 WNW 1013,6 10 0,0
12.06.2019 08:00:00 13,2 13,2 12,1 10 5 16 8 WNW 1013,3 4,5 0,0
12.06.2019 07:00:00 11,7 11,5 11,3 7 4 11 6 WNW 1012,9 0,2 0,0
12.06.2019 06:00:00 12,1 11,8 11,2 5 3 14 7 NNW 1012,5 0,3 0,0
12.06.2019 05:00:00 12,4 11,5 11,4 10 5 16 9 WNW 1012,1 49 0,0
12.06.2019 04:00:00 12,8 12,0 11,6 7 4 9 5 W 1012,4 37 0,0
12.06.2019 03:00:00 13,6 12,3 13,2 9 5 20 11 WNW 1012,5 60 0,2
12.06.2019 02:00:00 14,0 13,2 13,4 8 4 17 9 W 1012,1 23 0,0
12.06.2019 01:00:00 14,4 13,8 13,7 11 6 16 9 W 1012,6 15 2,0
12.06.2019 00:00:00 14,6 13,3 14,0 9 5 17 9 WZW 1013,0 5 0,8
11.06.2019 23:00:00 14,5 13,5 14,1 3 2 8 4 W 1012,5 36 0,0
11.06.2019 22:00:00 14,4 13,3 14,0 4 2 11 6 WZW 1012,3 42 0,0
11.06.2019 21:00:00 14,4 13,3 13,9 6 3 10 5 W 1012,0 41 0,2
11.06.2019 20:00:00 14,3 13,2 14,0 8 4 12 6 W 1012,2 17 0,8
11.06.2019 19:00:00 14,2 13,2 14,1 10 5 15 8 W 1012,4 6 3,5
11.06.2019 18:00:00 14,8 13,5 14,1 11 6 15 8 WNW 1012,2 6 2,0
11.06.2019 17:00:00 14,9 13,3 14,5 12 6 23 12 WNW 1012,3 19 0,4
11.06.2019 16:00:00 15,1 13,0 14,5 13 7 23 12 NW 1012,1 15 1,0
11.06.2019 15:00:00 15,0 13,2 14,1 16 9 22 12 WNW 1012,6 11 1,6
11.06.2019 14:00:00 15,6 12,9 15,1 15 8 21 12 WNW 1012,5 8 0,8
11.06.2019 13:00:00 15,6 12,5 15,4 13 7 18 10 WNW 1011,9 33 0,2
11.06.2019 12:00:00 15,1 12,4 14,9 10 6 21 12 NW 1011,5 35 0,2
11.06.2019 11:00:00 14,6 11,6 14,2 16 8 22 12 NW 1011,1 45 0,0
11.06.2019 10:00:00 14,3 11,4 13,3 18 10 23 12 NNW 1010,8 19 1,2
11.06.2019 09:00:00 15,4 10,2 14,2 8 4 18 10 NNW 1010,7 29 0,0
11.06.2019 08:00:00 15,6 8,1 15,6 12 7 18 10 NW 1010,4 60 0,0
11.06.2019 07:00:00 15,4 8,4 15,3 13 7 22 12 NW 1010,0 60 0,0
11.06.2019 06:00:00 15,6 8,3 15,4 14 8 22 12 WNW 1009,8 60 0,0
11.06.2019 05:00:00 16,0 8,0 15,7 14 7 28 15 NW 1010,0 60 0,0
11.06.2019 04:00:00 16,4 7,9 16,2 19 10 31 17 WNW 1010,4 60 0,0
11.06.2019 03:00:00 16,9 7,5 16,4 21 12 34 18 NW 1010,8 60 0,0
11.06.2019 02:00:00 16,9 7,8 16,7 27 15 42 23 NW 1010,7 60 0,0
11.06.2019 01:00:00 17,3 9,0 17,0 27 14 37 20 NNW 1010,7 60 0,0
11.06.2019 00:00:00 17,7 10,1 17,3 26 14 41 22 NNW 1011,3 60 0,0
10.06.2019 23:00:00 18,6 11,9 18,3 29 16 48 26 NNW 1010,9 60 0,0
10.06.2019 22:00:00 20,7 11,6 20,3 27 15 36 19 NW 1010,2 60 0,0
10.06.2019 21:00:00 22,6 11,0 22,3 21 12 35 19 NW 1009,4 60 0,0
10.06.2019 20:00:00 24,7 11,3 26,5 25 14 47 26 NW 1009,2 27 0,0
10.06.2019 19:00:00 25,7 10,7 29,3 35 19 56 30 NNW 1008,4 14 0,0
10.06.2019 18:00:00 26,1 10,7 27,9 38 21 56 30 NW 1008,7 13 0,0
10.06.2019 17:00:00 25,8 10,8 27,2 39 21 54 29 NW 1009,1 15 0,0

tt = temperatuur
td = dauwpunt
tt 5cm = temperatuur 5cm
ff = windsnelheid
fx = windstoten
dd = windrichting
ppp = luchtdruk
vv = zicht
rr = neerslag

Weerstations in de omgeving